Dubai, UAE

2:55 AM +04 on October 20, 2017 (GMT +0400)
Dubai

Weather History for 41194 - December, 2013

Change the Weather History Date:

Tuesday, December 10, 2013

  Actual Average Record
Temperature  
Mean Temperature 74 °F -  
Max Temperature 82 °F 76 °F - ()
Min Temperature 67 °F 60 °F - ()
Cooling Degree Days 10    
Growing Degree Days 24 (Base 50)    
Moisture  
Dew Point 61 °F    
Average Humidity 61    
Maximum Humidity 88    
Minimum Humidity 31    
Precipitation  
Precipitation 0.00 in 0.02 in - ()
Sea Level Pressure  
Sea Level Pressure 29.93 in    
Wind  
Wind Speed 7 mph ()    
Max Wind Speed 16 mph    
Max Gust Speed -    
Visibility 5.5 miles    
Events      
T = Trace of Precipitation, MM = Missing Value Source: Averaged Metar Reports

Daily Weather History Graph

Daily Weather History Graph

Search for Another Location

Airport or City:

Trip Planner

Search our weather history database for the weather conditions in past years. The results will help you decide how hot, cold, wet, or windy it might be!

Date:

Astronomy

Dec. 10, 2013 Rise Set
Actual Time 6:53 AM +04 5:29 PM +04
Civil Twilight 6:28 AM +04 5:54 PM +04
Nautical Twilight 5:59 AM +04 6:23 PM +04
Astronomical Twilight 5:31 AM +04 6:51 PM +04
Moon 12:44 PM +04 (12/10) 12:22 AM +04 (12/10)
Length of Visible Light 11h 26m
Length of Day
10h 36m
First Quarter, 57% of the Moon is Illuminated
Dec 10
First Quarter
Dec 17
Full
Dec 25
Last Quarter
Jan 1
New
Jan 8
First Quarter

Hourly Weather History & Observations

Time (+04) Temp. Heat Index Dew Point Humidity Pressure Visibility Wind Dir Wind Speed Gust Speed Precip Events Conditions
12:00 AM 71.6 °F - 64.4 °F 78% 29.92 in - SSW 5.8 mph - N/A   Clear
1:00 AM 71 °F - 64 °F 73% 29.91 in 6 mi SSW 4.6 mph - -  
1:00 AM 71.6 °F - 64.4 °F 78% 29.89 in - SSW 4.6 mph - N/A   Clear
2:00 AM 69.8 °F - 64.4 °F 83% 29.89 in 6.2 mi SSE 3.5 mph - N/A   Partly Cloudy
3:00 AM 69.8 °F - 62.6 °F 78% 29.89 in 6.2 mi SSE 4.6 mph - N/A   Partly Cloudy
4:00 AM 69.8 °F - 62.6 °F 78% 29.89 in - South 3.5 mph - N/A   Clear
5:00 AM 68.0 °F - 62.6 °F 83% 29.89 in - SSE 4.6 mph - N/A   Clear
6:00 AM 68.0 °F - 62.6 °F 83% 29.89 in 5.0 mi SSE 5.8 mph - N/A   Unknown
7:00 AM 67 °F - 63 °F 82% 29.92 in 4 mi SSE 4.6 mph - -   Haze
7:00 AM 68.0 °F - 62.6 °F 83% 29.92 in 4.3 mi SSE 4.6 mph - N/A   Unknown
8:00 AM 68.0 °F - 64.4 °F 88% 29.95 in 5.0 mi South 4.6 mph - N/A   Unknown
9:00 AM 71.6 °F - 64.4 °F 78% 29.95 in 5.0 mi South 6.9 mph - N/A   Unknown
10:00 AM 75.2 °F - 66.2 °F 73% 29.98 in - SSW 6.9 mph - N/A   Clear
11:00 AM 78.8 °F - 66.2 °F 65% 29.95 in - West 5.8 mph - N/A   Clear
12:00 PM 80.6 °F 81.8 °F 62.6 °F 54% 29.95 in 6.2 mi West 11.5 mph - N/A   Partly Cloudy
1:00 PM 81 °F - 61 °F 40% 29.92 in 6 mi West 12.7 mph - -  
1:00 PM 80.6 °F 81.5 °F 60.8 °F 51% 29.92 in - West 12.7 mph - N/A   Clear
2:00 PM 82.4 °F 82.0 °F 57.2 °F 42% 29.89 in - West 12.7 mph - N/A   Clear
3:00 PM 80.6 °F 81.1 °F 59.0 °F 48% 29.89 in - WNW 13.8 mph - N/A   Clear
4:00 PM 81 °F - 56 °F 31% 29.89 in 6 mi WNW 12.7 mph - -  
4:00 PM 80.6 °F 80.5 °F 55.4 °F 42% 29.89 in - WNW 12.7 mph - N/A   Clear
5:00 PM 80.6 °F 80.8 °F 57.2 °F 45% 29.89 in - WNW 16.1 mph - N/A   Clear
6:00 PM 78.8 °F - 59.0 °F 51% 29.92 in - WNW 13.8 mph - N/A   Clear
7:00 PM 78 °F - 56 °F 36% 29.95 in 6 mi West 13.8 mph - -  
7:00 PM 78.8 °F - 55.4 °F 44% 29.95 in - West 13.8 mph - N/A   Clear
8:00 PM 77.0 °F - 57.2 °F 50% 29.95 in - West 12.7 mph - N/A   Clear
9:00 PM 77.0 °F - 57.2 °F 50% 29.98 in - West 12.7 mph - N/A   Clear
10:00 PM 76 °F - 58 °F 44% 29.98 in 6 mi West 13.8 mph - -  
10:00 PM 77.0 °F - 59.0 °F 54% 29.98 in - West 13.8 mph - N/A   Clear
11:00 PM 77.0 °F - 59.0 °F 54% 29.98 in - West 13.8 mph - N/A   Clear